Location: Willingham
(52.3167°N, 0.0667°E)
Time: 21:29:49
(UTC+00:00)

Cosmos 1315 Rocket - Pass Details

Date: 19 May 2025
Orbit: 498 x 525 km, 81.2° (Epoch: 18 June)

Event Time Altitude Azimuth Distance (km) Brightness Sun altitude
Exits shadow 22:29:58 11° 217° (SW) 1,677 5.0 -15.3°
Maximum altitude 22:33:27 43° 288° (WNW) 747 3.8 -15.5°
Drops below altitude 10° 22:37:12 10° 2° (N) 1,775 6.5 -15.7°
Sets 22:39:26 0° 9° (N) 2,666 7.5 -15.8°
